Weather in Chuvashskaya Reshetka

Russia / Ulyanovsk Oblast     53°41′38″N   47°01′30″E
temp.,
°C
wind,
m/s
gust,
m/s
humid.,
%
clouds,
%
prec.,
mm/h
press.,
hPa
HPBL,
m
22 january, sat
sat2201:00−10sse71693100 0.2 1015514
04:00−9sse61493100 0.6 1015431
07:00−9sse61394100 0.4 1015392
10:00−7sse61293100 1.1 1016490
13:00−6sse61194100 0.3 1016491
16:00−4sse51196100 0.9 1016739
19:00−4sse61295100 2.3 1017649
22:00−4sse61295100 3.2 1019576
23 january, sun
sun2301:00−5sse4995100 0.3 1021326
04:00−6sse3895100 0.5 1023250
07:00−6sse3796100 0.4 1024280
10:00−6se3696100 1.0 1026289
13:00−4se3696100 0.5 1028356
16:00−4se3696100 1.4 1030365
19:00−6ese3896100 0.5 1031294
22:00−6ese3796100 1.3 1033302
24 january, mon
mon2401:00−7e2494100 0.3 1034192
04:00−8e2593100 0.3 1035153
07:00−12e2296100 0.0 103719
10:00−13ene2394100 0.0 103855
13:00−8e3682100 0.0 1037201
16:00−8e2590100 0.0 1037172
19:00−13ene2396100 0.0 103844
22:00−15e2297100 0.0 103828
25 january, tue
tue2501:00−16e229797 0.0 103714
04:00−19ese229997 0.0 103711
07:00−19se2298100 0.0 103511
10:00−16sse2393100 0.0 103451
13:00−10s3787100 0.0 1032190
16:00−9s3893100 0.0 1030224
19:00−15s2399100 0.0 103037
22:00−18s2310095 0.0 103029
26 january, wed
wed2601:00−17s2410099 0.0 102856
04:00−17s2410099 0.1 102756
07:00−15s2599100 0.1 102685
10:00−10s3796100 0.1 1025203
13:00−7s3693100 0.4 1023344
16:00−6s2593100 0.8 1023385
19:00−9ssw2398100 0.1 102347
22:00−15ssw2210090 0.1 102422